Home   Weather   Forchheim   Past weeks

Flag for Germany Past Weather in Forchheim, Bavaria, Germany — Yesterday and Last 2 Weeks

Now
37 °F

Clear.


Feels Like: 35 °F
Forecast: 30 / 43 °F
Wind: 3 mph from East

Location: Nuernberg

Current Time: Dec 10, 2016 at 8:18:01 am

Latest Report: Dec 10, 2016 at 7:50 am


Visibility: 10 mi

Pressure: 30.30 "Hg

Humidity: 93%

Dew Point: 36 °F

Location of ForchheimLocation

Past Weather in Forchheim — Graph

°F

Forchheim Temperature Yesterday

Maximum temperature yesterday: 45 °F (at 1:20 pm)
Minimum temperature yesterday: 28 °F (at 12:20 am)
Average temperature yesterday: 37 °F

High & Low Weather Summary for the Past Weeks

 TemperatureHumidityPressure
High50 °F (Nov 25, 12:50 pm)100% (Nov 27, 2:50 am)30.57 "Hg (Nov 27, 2:50 am)
Low16 °F (Nov 30, 4:20 am)51% (Nov 29, 3:50 pm)30.01 "Hg (Nov 26, 2:20 pm)
Average32 °F89%30.32 "Hg
* Reported Nov 25 7:20 am — Dec 10 7:20 am, Forchheim, Weather by CustomWeather, © 2016

Note: Actual official high and low records may vary slightly from our data, if they occured in-between our weather recording intervals... More about our weather records

Advertising

Forchheim Weather History for the Previous 24 Hours

Scroll right to see more
 ConditionsComfort  
Time TempWeatherWind HumidityBarometerVisibility
7:20 am
Sat, Dec 10
37 °FPassing clouds.3 mph93%30.30 "HgN/A
6:50 am37 °FPassing clouds.5 mph93%30.30 "HgN/A
6:20 am41 °FPassing clouds.5 mph87%30.30 "HgN/A
5:50 am41 °FPassing clouds.3 mph87%30.30 "HgN/A
5:20 am41 °FPassing clouds.5 mph87%30.30 "HgN/A
4:50 am41 °FPassing clouds.3 mph93%30.33 "HgN/A
4:20 am41 °FPassing clouds.2 mph93%30.33 "HgN/A
3:50 am41 °FPassing clouds.5 mph93%30.33 "HgN/A
3:20 am41 °FPassing clouds.3 mph93%30.36 "HgN/A
2:50 am41 °FMostly cloudy.3 mph93%30.36 "HgN/A
2:20 am41 °FMostly cloudy.5 mph93%30.36 "HgN/A
1:50 am41 °FMostly cloudy.3 mph93%30.36 "HgN/A
1:20 am41 °FMostly cloudy.5 mph93%30.39 "HgN/A
12:50 am41 °FOvercast.5 mph93%30.39 "HgN/A
12:20 am41 °FPassing clouds.3 mph93%30.39 "HgN/A
11:50 pm
Fri, Dec 9
39 °FPassing clouds.5 mph93%30.39 "HgN/A
11:20 pm41 °FPassing clouds.3 mph93%30.42 "HgN/A
10:50 pm41 °FPassing clouds.5 mph93%30.42 "HgN/A
10:20 pm41 °FPassing clouds.5 mph93%30.42 "HgN/A
9:50 pm41 °FPartly cloudy.6 mph93%30.42 "HgN/A
9:20 pm41 °FPassing clouds.3 mph93%30.42 "HgN/A
8:50 pm43 °FPassing clouds.6 mph87%30.42 "HgN/A
8:20 pm43 °FPassing clouds.5 mph87%30.42 "HgN/A
7:50 pm41 °FPassing clouds.3 mph93%30.45 "HgN/A
7:20 pm43 °FPassing clouds.3 mph87%30.45 "HgN/A
6:50 pm43 °FPassing clouds.1 mph87%30.45 "HgN/A
6:20 pm43 °FPassing clouds.3 mph87%30.45 "HgN/A
5:50 pm43 °FPassing clouds.5 mph87%30.45 "HgN/A
5:20 pm43 °FPassing clouds.6 mph81%30.45 "HgN/A
4:50 pm43 °FPassing clouds.5 mph81%30.45 "HgN/A
4:20 pm43 °FPassing clouds.5 mph81%30.45 "HgN/A
3:50 pm43 °FPartly sunny.5 mph81%30.45 "HgN/A
3:20 pm45 °FPartly sunny.2 mph76%30.45 "HgN/A
2:50 pm45 °FPartly sunny.1 mph71%30.45 "HgN/A
2:20 pm45 °FPartly sunny.1 mph71%30.45 "HgN/A
1:50 pm43 °FPartly sunny.3 mph76%30.45 "HgN/A
1:20 pm45 °FPartly sunny.5 mph66%30.45 "HgN/A
12:50 pm43 °FPartly sunny.2 mph71%30.45 "HgN/A
12:20 pm41 °FPartly sunny.2 mph76%30.45 "HgN/A
11:50 am41 °FPartly sunny.2 mph76%30.45 "HgN/A
11:20 am39 °FPartly sunny.3 mph75%30.45 "HgN/A
10:50 am39 °FOvercast.2 mph75%30.45 "HgN/A
10:20 am37 °FPartly sunny.3 mph81%30.45 "HgN/A
9:50 am37 °FPartly sunny.3 mph81%30.45 "HgN/A
9:20 am36 °FPartly sunny.2 mph87%30.45 "HgN/A
8:50 am34 °FPartly sunny.3 mph87%30.45 "HgN/A
8:20 am34 °FPartly sunny.2 mph87%30.45 "HgN/A
Weather by CustomWeather, © 2016

See weather overviewHow to use our weather pages